Year,Month,Day,Hour,Minute,Value (Times are PST for temperature in C)
2017,05,27,00,00,15.10
2017,05,27,00,01,15.10
2017,05,27,00,02,15.00
2017,05,27,00,03,15.00
2017,05,27,00,04,15.10
2017,05,27,00,05,15.10
2017,05,27,00,06,15.00
2017,05,27,00,07,15.00
2017,05,27,00,08,15.00
2017,05,27,00,09,15.00
2017,05,27,00,10,15.00
2017,05,27,00,11,15.00
2017,05,27,00,12,15.00
2017,05,27,00,13,15.00
2017,05,27,00,14,15.00
2017,05,27,00,15,15.00
2017,05,27,00,16,15.10
2017,05,27,00,17,15.10
2017,05,27,00,18,15.20
2017,05,27,00,19,15.20
2017,05,27,00,20,15.20
2017,05,27,00,21,15.20
2017,05,27,00,22,15.20
2017,05,27,00,23,15.10
2017,05,27,00,24,15.10
2017,05,27,00,25,15.10
2017,05,27,00,26,15.10
2017,05,27,00,27,15.00
2017,05,27,00,28,15.00
2017,05,27,00,29,15.00
2017,05,27,00,30,15.00
2017,05,27,00,31,15.00
2017,05,27,00,32,15.00
2017,05,27,00,33,15.00
2017,05,27,00,34,15.00
2017,05,27,00,35,15.00
2017,05,27,00,36,15.00
2017,05,27,00,37,15.00
2017,05,27,00,38,15.00
2017,05,27,00,39,15.00
2017,05,27,00,40,15.00
2017,05,27,00,41,15.00
2017,05,27,00,42,15.00
2017,05,27,00,43,14.90
2017,05,27,00,44,14.90
2017,05,27,00,45,14.90
2017,05,27,00,46,14.90
2017,05,27,00,47,14.90
2017,05,27,00,48,14.90
2017,05,27,00,49,14.90
2017,05,27,00,50,14.90
2017,05,27,00,51,14.90
2017,05,27,00,52,14.90
2017,05,27,00,53,14.90
2017,05,27,00,54,14.90
2017,05,27,00,55,14.80
2017,05,27,00,56,14.90
2017,05,27,00,57,14.90
2017,05,27,00,58,14.90
2017,05,27,00,59,14.80
2017,05,27,01,00,14.80
2017,05,27,01,01,14.80
2017,05,27,01,02,14.80
2017,05,27,01,03,14.80
2017,05,27,01,04,14.70
2017,05,27,01,05,14.70
2017,05,27,01,06,14.70
2017,05,27,01,07,14.70
2017,05,27,01,08,14.60
2017,05,27,01,09,14.60
2017,05,27,01,10,14.60
2017,05,27,01,11,14.60
2017,05,27,01,12,14.50
2017,05,27,01,13,14.50
2017,05,27,01,14,14.40
2017,05,27,01,15,14.40
2017,05,27,01,16,14.40
2017,05,27,01,17,14.30
2017,05,27,01,18,14.30
2017,05,27,01,19,14.30
2017,05,27,01,20,14.30
2017,05,27,01,21,14.30
2017,05,27,01,22,14.30
2017,05,27,01,23,14.30
2017,05,27,01,24,14.30
2017,05,27,01,25,14.30
2017,05,27,01,26,14.30
2017,05,27,01,27,14.30
2017,05,27,01,28,14.30
2017,05,27,01,29,14.30
2017,05,27,01,30,14.30
2017,05,27,01,31,14.30
2017,05,27,01,32,14.30
2017,05,27,01,33,14.30
2017,05,27,01,34,14.30
2017,05,27,01,35,14.30
2017,05,27,01,36,14.30
2017,05,27,01,37,14.30
2017,05,27,01,38,14.20
2017,05,27,01,39,14.20
2017,05,27,01,40,14.20
2017,05,27,01,41,14.20
2017,05,27,01,42,14.20
2017,05,27,01,43,14.10
2017,05,27,01,44,14.10
2017,05,27,01,45,14.10
2017,05,27,01,46,14.10
2017,05,27,01,47,14.00
2017,05,27,01,48,14.00
2017,05,27,01,49,14.00
2017,05,27,01,50,13.90
2017,05,27,01,51,13.90
2017,05,27,01,52,13.90
2017,05,27,01,53,13.90
2017,05,27,01,54,13.90
2017,05,27,01,55,13.90
2017,05,27,01,56,13.80
2017,05,27,01,57,13.80
2017,05,27,01,58,13.80
2017,05,27,01,59,13.80
2017,05,27,02,00,13.80
2017,05,27,02,01,13.80
2017,05,27,02,02,13.80
2017,05,27,02,03,13.70
2017,05,27,02,04,13.70
2017,05,27,02,05,13.70
2017,05,27,02,06,13.70
2017,05,27,02,07,13.70
2017,05,27,02,08,13.70
2017,05,27,02,09,13.70
2017,05,27,02,10,13.70
2017,05,27,02,11,13.60
2017,05,27,02,12,13.60
2017,05,27,02,13,13.60
2017,05,27,02,14,13.60
2017,05,27,02,15,13.60
2017,05,27,02,16,13.50
2017,05,27,02,17,13.50
2017,05,27,02,18,13.50
2017,05,27,02,19,13.40
2017,05,27,02,20,13.40
2017,05,27,02,21,13.40
2017,05,27,02,22,13.40
2017,05,27,02,23,13.30
2017,05,27,02,24,13.30
2017,05,27,02,25,13.30
2017,05,27,02,26,13.30
2017,05,27,02,27,13.30
2017,05,27,02,28,13.20
2017,05,27,02,29,13.20
2017,05,27,02,30,13.20
2017,05,27,02,31,13.20
2017,05,27,02,32,13.20
2017,05,27,02,33,13.20
2017,05,27,02,34,13.20
2017,05,27,02,35,13.20
2017,05,27,02,36,13.20
2017,05,27,02,37,13.20
2017,05,27,02,38,13.20
2017,05,27,02,39,13.20
2017,05,27,02,40,13.10
2017,05,27,02,41,13.10
2017,05,27,02,42,13.10
2017,05,27,02,43,13.10
2017,05,27,02,44,13.10
2017,05,27,02,45,13.10
2017,05,27,02,46,13.10
2017,05,27,02,47,13.10
2017,05,27,02,48,13.10
2017,05,27,02,49,13.10
2017,05,27,02,50,13.10
2017,05,27,02,51,13.10
2017,05,27,02,52,13.10
2017,05,27,02,53,13.10
2017,05,27,02,54,13.00
2017,05,27,02,55,13.10
2017,05,27,02,56,13.00
2017,05,27,02,57,13.00
2017,05,27,02,58,13.00
2017,05,27,02,59,13.00
2017,05,27,03,00,13.00
2017,05,27,03,01,13.00
2017,05,27,03,02,13.00
2017,05,27,03,03,13.00
2017,05,27,03,04,13.00
2017,05,27,03,05,12.90
2017,05,27,03,06,12.90
2017,05,27,03,07,12.90
2017,05,27,03,08,12.90
2017,05,27,03,09,12.90
2017,05,27,03,10,12.90
2017,05,27,03,11,12.90
2017,05,27,03,12,12.90
2017,05,27,03,13,12.90
2017,05,27,03,14,12.90
2017,05,27,03,15,12.90
2017,05,27,03,16,12.90
2017,05,27,03,17,12.90
2017,05,27,03,18,12.90
2017,05,27,03,19,12.90
2017,05,27,03,20,12.90
2017,05,27,03,21,12.90
2017,05,27,03,22,13.00
2017,05,27,03,23,13.00
2017,05,27,03,24,13.10
2017,05,27,03,25,13.10
2017,05,27,03,26,13.10
2017,05,27,03,27,13.10
2017,05,27,03,28,13.20
2017,05,27,03,29,13.20
2017,05,27,03,30,13.30
2017,05,27,03,31,13.30
2017,05,27,03,32,13.30
2017,05,27,03,33,13.40
2017,05,27,03,34,13.40
2017,05,27,03,35,13.40
2017,05,27,03,36,13.50
2017,05,27,03,37,13.50
2017,05,27,03,38,13.60
2017,05,27,03,39,13.70
2017,05,27,03,40,13.80
2017,05,27,03,41,13.80
2017,05,27,03,42,13.90
2017,05,27,03,43,14.00
2017,05,27,03,44,14.00
2017,05,27,03,45,14.10
2017,05,27,03,46,14.10
2017,05,27,03,47,14.10
2017,05,27,03,48,14.20
2017,05,27,03,49,14.20
2017,05,27,03,50,14.20
2017,05,27,03,51,14.20
2017,05,27,03,52,14.20
2017,05,27,03,53,14.20
2017,05,27,03,54,14.20
2017,05,27,03,55,14.10
2017,05,27,03,56,14.10
2017,05,27,03,57,14.00
2017,05,27,03,58,13.90
2017,05,27,03,59,13.80
2017,05,27,04,00,13.80
2017,05,27,04,01,13.70
2017,05,27,04,02,13.70
2017,05,27,04,03,13.70
2017,05,27,04,04,13.60
2017,05,27,04,05,13.60
2017,05,27,04,06,13.50
2017,05,27,04,07,13.40
2017,05,27,04,08,13.40
2017,05,27,04,09,13.30
2017,05,27,04,10,13.30
2017,05,27,04,11,13.20
2017,05,27,04,12,13.20
2017,05,27,04,13,13.10
2017,05,27,04,14,13.00
2017,05,27,04,15,13.00
2017,05,27,04,16,12.90
2017,05,27,04,17,12.80
2017,05,27,04,18,12.70
2017,05,27,04,19,12.60
2017,05,27,04,20,12.60
2017,05,27,04,21,12.50
2017,05,27,04,22,12.40
2017,05,27,04,23,12.40
2017,05,27,04,24,12.30
2017,05,27,04,25,12.30
2017,05,27,04,26,12.20
2017,05,27,04,27,12.20
2017,05,27,04,28,12.10
2017,05,27,04,29,12.10
2017,05,27,04,30,12.10
2017,05,27,04,31,12.00
2017,05,27,04,32,12.00
2017,05,27,04,33,11.90
2017,05,27,04,34,11.90
2017,05,27,04,35,11.80
2017,05,27,04,36,11.80
2017,05,27,04,37,11.80
2017,05,27,04,38,11.70
2017,05,27,04,39,11.70
2017,05,27,04,40,11.70
2017,05,27,04,41,11.60
2017,05,27,04,42,11.60
2017,05,27,04,43,11.60
2017,05,27,04,44,11.60
2017,05,27,04,45,11.50
2017,05,27,04,46,11.50
2017,05,27,04,47,11.40
2017,05,27,04,48,11.40
2017,05,27,04,49,11.40
2017,05,27,04,50,11.40
2017,05,27,04,51,11.40
2017,05,27,04,52,11.40
2017,05,27,04,53,11.30
2017,05,27,04,54,11.30
2017,05,27,04,55,11.30
2017,05,27,04,56,11.30
2017,05,27,04,57,11.30
2017,05,27,04,58,11.20
2017,05,27,04,59,11.20
2017,05,27,05,00,11.20
2017,05,27,05,01,11.20
2017,05,27,05,02,11.20
2017,05,27,05,03,11.10
2017,05,27,05,04,11.10
2017,05,27,05,05,11.10
2017,05,27,05,06,11.10
2017,05,27,05,07,11.10
2017,05,27,05,08,11.00
2017,05,27,05,09,11.00
2017,05,27,05,10,10.90
2017,05,27,05,11,10.90
2017,05,27,05,12,10.90
2017,05,27,05,13,10.90
2017,05,27,05,14,10.90
2017,05,27,05,15,10.90
2017,05,27,05,16,10.80
2017,05,27,05,17,10.80
2017,05,27,05,18,10.80
2017,05,27,05,19,10.80
2017,05,27,05,20,10.80
2017,05,27,05,21,10.80
2017,05,27,05,22,10.80
2017,05,27,05,23,10.80
2017,05,27,05,24,10.70
2017,05,27,05,25,10.70
2017,05,27,05,26,10.70
2017,05,27,05,27,10.70
2017,05,27,05,28,10.70
2017,05,27,05,29,10.60
2017,05,27,05,30,10.60
2017,05,27,05,31,10.60
2017,05,27,05,32,10.60
2017,05,27,05,33,10.60
2017,05,27,05,34,10.60
2017,05,27,05,35,10.60
2017,05,27,05,36,10.60
2017,05,27,05,37,10.60
2017,05,27,05,38,10.60
2017,05,27,05,39,10.60
2017,05,27,05,40,10.60
2017,05,27,05,41,10.60
2017,05,27,05,42,10.60
2017,05,27,05,43,10.60
2017,05,27,05,44,10.60
2017,05,27,05,45,10.60
2017,05,27,05,46,10.60
2017,05,27,05,47,10.60
2017,05,27,05,48,10.70
2017,05,27,05,49,10.70
2017,05,27,05,50,10.70
2017,05,27,05,51,10.80
2017,05,27,05,52,10.80
2017,05,27,05,53,10.80
2017,05,27,05,54,10.80
2017,05,27,05,55,10.80
2017,05,27,05,56,10.80
2017,05,27,05,57,10.80
2017,05,27,05,58,10.80
2017,05,27,05,59,10.90
2017,05,27,06,00,10.90
2017,05,27,06,01,10.90
2017,05,27,06,02,10.90
2017,05,27,06,03,10.90
2017,05,27,06,04,10.90
2017,05,27,06,05,10.90
2017,05,27,06,06,10.90
2017,05,27,06,07,10.90
2017,05,27,06,08,10.90
2017,05,27,06,09,10.90
2017,05,27,06,10,10.90
2017,05,27,06,11,10.80
2017,05,27,06,12,10.80
2017,05,27,06,13,10.80
2017,05,27,06,14,10.80
2017,05,27,06,15,10.80
2017,05,27,06,16,10.80
2017,05,27,06,17,10.80
2017,05,27,06,18,10.80
2017,05,27,06,19,10.80
2017,05,27,06,20,10.80
2017,05,27,06,21,10.90
2017,05,27,06,22,10.90
2017,05,27,06,23,10.90
2017,05,27,06,24,10.90
2017,05,27,06,25,10.90
2017,05,27,06,26,10.90
2017,05,27,06,27,11.00
2017,05,27,06,28,11.00
2017,05,27,06,29,11.10
2017,05,27,06,30,11.10
2017,05,27,06,31,11.10
2017,05,27,06,32,11.20
2017,05,27,06,33,11.20
2017,05,27,06,34,11.20
2017,05,27,06,35,11.30
2017,05,27,06,36,11.30
2017,05,27,06,37,11.30
2017,05,27,06,38,11.30
2017,05,27,06,39,11.40
2017,05,27,06,40,11.40
2017,05,27,06,41,11.40
2017,05,27,06,42,11.40
2017,05,27,06,43,11.50
2017,05,27,06,44,11.50
2017,05,27,06,45,11.50
2017,05,27,06,46,11.60
2017,05,27,06,47,11.60
2017,05,27,06,48,11.60
2017,05,27,06,49,11.60
2017,05,27,06,50,11.60
2017,05,27,06,51,11.60
2017,05,27,06,52,11.60
2017,05,27,06,53,11.60
2017,05,27,06,54,11.70
2017,05,27,06,55,11.70
2017,05,27,06,56,11.70
2017,05,27,06,57,11.70
2017,05,27,06,58,11.70
2017,05,27,06,59,11.80
2017,05,27,07,00,11.80
2017,05,27,07,01,11.80
2017,05,27,07,02,11.80
2017,05,27,07,03,11.80
2017,05,27,07,04,11.90
2017,05,27,07,05,11.90
2017,05,27,07,06,12.00
2017,05,27,07,07,11.90
2017,05,27,07,08,12.00
2017,05,27,07,09,12.00
2017,05,27,07,10,12.00
2017,05,27,07,11,12.10
2017,05,27,07,12,12.10
2017,05,27,07,13,12.10
2017,05,27,07,14,12.20
2017,05,27,07,15,12.20
2017,05,27,07,16,12.20
2017,05,27,07,17,12.20
2017,05,27,07,18,12.30
2017,05,27,07,19,12.30
2017,05,27,07,20,12.30
2017,05,27,07,21,12.30
2017,05,27,07,22,12.40
2017,05,27,07,23,12.50
2017,05,27,07,24,12.50
2017,05,27,07,25,12.60
2017,05,27,07,26,12.70
2017,05,27,07,27,12.70
2017,05,27,07,28,12.80
2017,05,27,07,29,12.90
2017,05,27,07,30,13.00
2017,05,27,07,31,13.10
2017,05,27,07,32,13.20
2017,05,27,07,33,13.30
2017,05,27,07,34,13.40
2017,05,27,07,35,13.50
2017,05,27,07,36,13.60
2017,05,27,07,37,13.70
2017,05,27,07,38,13.90
2017,05,27,07,39,14.10
2017,05,27,07,40,14.30
2017,05,27,07,41,14.50
2017,05,27,07,42,14.70
2017,05,27,07,43,14.90
2017,05,27,07,44,15.00
2017,05,27,07,45,15.00
2017,05,27,07,46,15.20
2017,05,27,07,47,15.40
2017,05,27,07,48,15.50
2017,05,27,07,49,15.60
2017,05,27,07,50,15.70
2017,05,27,07,51,15.80
2017,05,27,07,52,15.90
2017,05,27,07,53,16.00
2017,05,27,07,54,16.00
2017,05,27,07,55,16.10
2017,05,27,07,56,16.20
2017,05,27,07,57,16.30
2017,05,27,07,58,16.30
2017,05,27,07,59,16.40
2017,05,27,08,00,16.50
2017,05,27,08,01,16.50
2017,05,27,08,02,16.60
2017,05,27,08,03,16.70
2017,05,27,08,04,16.80
2017,05,27,08,05,16.90
2017,05,27,08,06,17.00
2017,05,27,08,07,17.10
2017,05,27,08,08,17.10
2017,05,27,08,09,17.20
2017,05,27,08,10,17.20
2017,05,27,08,11,17.30
2017,05,27,08,12,17.30
2017,05,27,08,13,17.30
2017,05,27,08,14,17.30
2017,05,27,08,15,17.30
2017,05,27,08,16,17.30
2017,05,27,08,17,17.30
2017,05,27,08,18,17.30
2017,05,27,08,19,17.30
2017,05,27,08,20,17.30
2017,05,27,08,21,17.30
2017,05,27,08,22,17.30
2017,05,27,08,23,17.30
2017,05,27,08,24,17.40
2017,05,27,08,25,17.40
2017,05,27,08,26,17.50
2017,05,27,08,27,17.50
2017,05,27,08,28,17.60
2017,05,27,08,29,17.60
2017,05,27,08,30,17.70
2017,05,27,08,31,17.70
2017,05,27,08,32,17.80
2017,05,27,08,33,17.90
2017,05,27,08,34,17.90
2017,05,27,08,35,18.00
2017,05,27,08,36,18.10
2017,05,27,08,37,18.10
2017,05,27,08,38,18.20
2017,05,27,08,39,18.20
2017,05,27,08,40,18.20
2017,05,27,08,41,18.20
2017,05,27,08,42,18.20
2017,05,27,08,43,18.10
2017,05,27,08,44,18.10
2017,05,27,08,45,18.10
2017,05,27,08,46,18.10
2017,05,27,08,47,18.00
2017,05,27,08,48,18.10
2017,05,27,08,49,18.10
2017,05,27,08,50,18.10
2017,05,27,08,51,18.10
2017,05,27,08,52,18.10
2017,05,27,08,53,18.20
2017,05,27,08,54,18.20
2017,05,27,08,55,18.20
2017,05,27,08,56,18.20
2017,05,27,08,57,18.20
2017,05,27,08,58,18.30
2017,05,27,08,59,18.30
2017,05,27,09,00,18.40
2017,05,27,09,01,18.40
2017,05,27,09,02,18.50
2017,05,27,09,03,18.60
2017,05,27,09,04,18.60
2017,05,27,09,05,18.70
2017,05,27,09,06,18.70
2017,05,27,09,07,18.70
2017,05,27,09,08,18.80
2017,05,27,09,09,18.80
2017,05,27,09,10,18.80
2017,05,27,09,11,18.80
2017,05,27,09,12,18.80
2017,05,27,09,13,18.80
2017,05,27,09,14,18.80
2017,05,27,09,15,18.90
2017,05,27,09,16,18.90
2017,05,27,09,17,18.90
2017,05,27,09,18,19.00
2017,05,27,09,19,19.10
2017,05,27,09,20,19.10
2017,05,27,09,21,19.10
2017,05,27,09,22,19.20
2017,05,27,09,23,19.20
2017,05,27,09,24,19.30
2017,05,27,09,25,19.30
2017,05,27,09,26,19.30
2017,05,27,09,27,19.30
2017,05,27,09,28,19.30
2017,05,27,09,29,19.30
2017,05,27,09,30,19.40
2017,05,27,09,31,19.40
2017,05,27,09,32,19.50
2017,05,27,09,33,19.60
2017,05,27,09,34,19.70
2017,05,27,09,35,19.80
2017,05,27,09,36,19.90
2017,05,27,09,37,20.00
2017,05,27,09,38,20.00
2017,05,27,09,39,20.00
2017,05,27,09,40,20.00
2017,05,27,09,41,20.00
2017,05,27,09,42,20.10
2017,05,27,09,43,20.10
2017,05,27,09,44,20.10
2017,05,27,09,45,20.10
2017,05,27,09,46,20.10
2017,05,27,09,47,20.10
2017,05,27,09,48,20.20
2017,05,27,09,49,20.20
2017,05,27,09,50,20.10
2017,05,27,09,51,20.10
2017,05,27,09,52,20.10
2017,05,27,09,53,20.10
2017,05,27,09,54,20.10
2017,05,27,09,55,20.10
2017,05,27,09,56,20.10
2017,05,27,09,57,20.20
2017,05,27,09,58,20.20
2017,05,27,09,59,20.20
2017,05,27,10,00,20.30
2017,05,27,10,01,20.30
2017,05,27,10,02,20.30
2017,05,27,10,03,20.20
2017,05,27,10,04,20.30
2017,05,27,10,05,20.30
2017,05,27,10,06,20.30
2017,05,27,10,07,20.30
2017,05,27,10,08,20.30
2017,05,27,10,09,20.40
2017,05,27,10,10,20.40
2017,05,27,10,11,20.40
2017,05,27,10,12,20.40
2017,05,27,10,13,20.40
2017,05,27,10,14,20.50
2017,05,27,10,15,20.50
2017,05,27,10,16,20.50
2017,05,27,10,17,20.60
2017,05,27,10,18,20.60
2017,05,27,10,19,20.60
2017,05,27,10,20,20.60
2017,05,27,10,21,20.50
2017,05,27,10,22,20.40
2017,05,27,10,23,20.30
2017,05,27,10,24,20.20
2017,05,27,10,25,20.20
2017,05,27,10,26,20.10
2017,05,27,10,27,20.10
2017,05,27,10,28,20.10
2017,05,27,10,29,20.10
2017,05,27,10,30,20.10
2017,05,27,10,31,20.10
2017,05,27,10,32,20.10
2017,05,27,10,33,20.20
2017,05,27,10,34,20.20
2017,05,27,10,35,20.20
2017,05,27,10,36,20.30
2017,05,27,10,37,20.30
2017,05,27,10,38,20.30
2017,05,27,10,39,20.30
2017,05,27,10,40,20.20
2017,05,27,10,41,20.20
2017,05,27,10,42,20.20
2017,05,27,10,43,20.20
2017,05,27,10,44,20.20
2017,05,27,10,45,20.30
2017,05,27,10,46,20.30
2017,05,27,10,47,20.40
2017,05,27,10,48,20.50
2017,05,27,10,49,20.50
2017,05,27,10,50,20.40
2017,05,27,10,51,20.40
2017,05,27,10,52,20.30
2017,05,27,10,53,20.30
2017,05,27,10,54,20.30
2017,05,27,10,55,20.30
2017,05,27,10,56,20.40
2017,05,27,10,57,20.40
2017,05,27,10,58,20.50
2017,05,27,10,59,20.60
2017,05,27,11,00,20.70
2017,05,27,11,01,20.70
2017,05,27,11,02,20.70
2017,05,27,11,03,20.80
2017,05,27,11,04,20.90
2017,05,27,11,05,21.00
2017,05,27,11,06,21.00
2017,05,27,11,07,21.10
2017,05,27,11,08,21.10
2017,05,27,11,09,21.10
2017,05,27,11,10,21.20
2017,05,27,11,11,21.20
2017,05,27,11,12,21.20
2017,05,27,11,13,21.20
2017,05,27,11,14,21.20
2017,05,27,11,15,21.20
2017,05,27,11,16,21.20
2017,05,27,11,17,21.30
2017,05,27,11,18,21.30
2017,05,27,11,19,21.30
2017,05,27,11,20,21.40
2017,05,27,11,21,21.50
2017,05,27,11,22,21.50
2017,05,27,11,23,21.60
2017,05,27,11,24,21.60
2017,05,27,11,25,21.60
2017,05,27,11,26,21.60
2017,05,27,11,27,21.50
2017,05,27,11,28,21.50
2017,05,27,11,29,21.40
2017,05,27,11,30,21.40
2017,05,27,11,31,21.50
2017,05,27,11,32,21.40
2017,05,27,11,33,21.40
2017,05,27,11,34,21.40
2017,05,27,11,35,21.30
2017,05,27,11,36,21.40
2017,05,27,11,37,21.40
2017,05,27,11,38,21.30
2017,05,27,11,39,21.30
2017,05,27,11,40,21.30
2017,05,27,11,41,21.30
2017,05,27,11,42,21.30
2017,05,27,11,43,21.30
2017,05,27,11,44,21.40
2017,05,27,11,45,21.30
2017,05,27,11,46,21.20
2017,05,27,11,47,21.20
2017,05,27,11,48,21.20
2017,05,27,11,49,21.20
2017,05,27,11,50,21.20
2017,05,27,11,51,21.20
2017,05,27,11,52,21.30
2017,05,27,11,53,21.40
2017,05,27,11,54,21.50
2017,05,27,11,55,21.60
2017,05,27,11,56,21.70
2017,05,27,11,57,21.80
2017,05,27,11,58,21.80
2017,05,27,11,59,21.80
2017,05,27,12,00,21.80
2017,05,27,12,01,21.80
2017,05,27,12,02,21.80
2017,05,27,12,03,21.80
2017,05,27,12,04,21.80
2017,05,27,12,05,21.80
2017,05,27,12,06,21.90
2017,05,27,12,07,21.90
2017,05,27,12,08,22.00
2017,05,27,12,09,22.10
2017,05,27,12,10,22.10
2017,05,27,12,11,22.10
2017,05,27,12,12,22.20
2017,05,27,12,13,22.30
2017,05,27,12,14,22.30
2017,05,27,12,15,22.40
2017,05,27,12,16,22.40
2017,05,27,12,17,22.40
2017,05,27,12,18,22.30
2017,05,27,12,19,22.30
2017,05,27,12,20,22.30
2017,05,27,12,21,22.40
2017,05,27,12,22,22.50
2017,05,27,12,23,22.60
2017,05,27,12,24,22.70
2017,05,27,12,25,22.80
2017,05,27,12,26,22.90
2017,05,27,12,27,23.00
2017,05,27,12,28,23.10
2017,05,27,12,29,23.10
2017,05,27,12,30,23.10
2017,05,27,12,31,23.20
2017,05,27,12,32,23.20
2017,05,27,12,33,23.20
2017,05,27,12,34,23.20
2017,05,27,12,35,23.20
2017,05,27,12,36,23.20
2017,05,27,12,37,23.20
2017,05,27,12,38,23.30
2017,05,27,12,39,23.30
2017,05,27,12,40,23.40
2017,05,27,12,41,23.40
2017,05,27,12,42,23.50
2017,05,27,12,43,23.60
2017,05,27,12,44,23.60
2017,05,27,12,45,23.70
2017,05,27,12,46,23.70
2017,05,27,12,47,23.70
2017,05,27,12,48,23.80
2017,05,27,12,49,23.90
2017,05,27,12,50,24.00
2017,05,27,12,51,24.00
2017,05,27,12,52,24.10
2017,05,27,12,53,24.10
2017,05,27,12,54,24.10
2017,05,27,12,55,24.00
2017,05,27,12,56,24.00
2017,05,27,12,57,23.90
2017,05,27,12,58,24.00
2017,05,27,12,59,24.00
2017,05,27,13,00,24.00
2017,05,27,13,01,23.80
2017,05,27,13,02,23.50
2017,05,27,13,03,23.20
2017,05,27,13,04,23.00
2017,05,27,13,05,22.80
2017,05,27,13,06,22.50
2017,05,27,13,07,22.30
2017,05,27,13,08,22.10
2017,05,27,13,09,21.90
2017,05,27,13,10,21.80
2017,05,27,13,11,21.70
2017,05,27,13,12,21.70
2017,05,27,13,13,21.70
2017,05,27,13,14,21.70
2017,05,27,13,15,21.80
2017,05,27,13,16,21.80
2017,05,27,13,17,21.80
2017,05,27,13,18,21.90
2017,05,27,13,19,22.00
2017,05,27,13,20,22.00
2017,05,27,13,21,22.10
2017,05,27,13,22,22.20
2017,05,27,13,23,22.20
2017,05,27,13,24,22.30
2017,05,27,13,25,22.30
2017,05,27,13,26,22.20
2017,05,27,13,27,22.30
2017,05,27,13,28,22.30
2017,05,27,13,29,22.40
2017,05,27,13,30,22.50
2017,05,27,13,31,22.50
2017,05,27,13,32,22.50
2017,05,27,13,33,22.50
2017,05,27,13,34,22.40
2017,05,27,13,35,22.40
2017,05,27,13,36,22.30
2017,05,27,13,37,22.20
2017,05,27,13,38,22.30
2017,05,27,13,39,22.30
2017,05,27,13,40,22.40
2017,05,27,13,41,22.40
2017,05,27,13,42,22.50
2017,05,27,13,43,22.50
2017,05,27,13,44,22.60
2017,05,27,13,45,22.70
2017,05,27,13,46,22.80
2017,05,27,13,47,22.90
2017,05,27,13,48,23.00
2017,05,27,13,49,23.10
2017,05,27,13,50,23.10
2017,05,27,13,51,23.30
2017,05,27,13,52,23.50
2017,05,27,13,53,23.60
2017,05,27,13,54,23.70
2017,05,27,13,55,23.90
2017,05,27,13,56,23.90
2017,05,27,13,57,23.90
2017,05,27,13,58,23.90
2017,05,27,13,59,24.00
2017,05,27,14,00,24.10
2017,05,27,14,01,24.20
2017,05,27,14,02,24.30
2017,05,27,14,03,24.40
2017,05,27,14,04,24.50
2017,05,27,14,05,24.50
2017,05,27,14,06,24.60
2017,05,27,14,07,24.70
2017,05,27,14,08,24.80
2017,05,27,14,09,25.00
2017,05,27,14,10,25.10
2017,05,27,14,11,25.20
2017,05,27,14,12,25.30
2017,05,27,14,13,25.40
2017,05,27,14,14,25.40
2017,05,27,14,15,25.40
2017,05,27,14,16,25.40
2017,05,27,14,17,25.30
2017,05,27,14,18,25.30
2017,05,27,14,19,25.30
2017,05,27,14,20,25.30
2017,05,27,14,21,25.40
2017,05,27,14,22,25.40
2017,05,27,14,23,25.40
2017,05,27,14,24,25.40
2017,05,27,14,25,25.50
2017,05,27,14,26,25.50
2017,05,27,14,27,25.50
2017,05,27,14,28,25.50
2017,05,27,14,29,25.60
2017,05,27,14,30,25.70
2017,05,27,14,31,25.80
2017,05,27,14,32,25.90
2017,05,27,14,33,26.00
2017,05,27,14,34,26.00
2017,05,27,14,35,26.10
2017,05,27,14,36,26.20
2017,05,27,14,37,26.30
2017,05,27,14,38,26.40
2017,05,27,14,39,26.40
2017,05,27,14,40,26.50
2017,05,27,14,41,26.40
2017,05,27,14,42,26.50
2017,05,27,14,43,26.30
2017,05,27,14,44,26.10
2017,05,27,14,45,26.00
2017,05,27,14,46,25.90
2017,05,27,14,47,25.80
2017,05,27,14,48,25.70
2017,05,27,14,49,25.50
2017,05,27,14,50,25.40
2017,05,27,14,51,25.40
2017,05,27,14,52,25.30
2017,05,27,14,53,25.30
2017,05,27,14,54,25.10
2017,05,27,14,55,25.00
2017,05,27,14,56,24.90
2017,05,27,14,57,24.80
2017,05,27,14,58,24.70
2017,05,27,14,59,24.70
2017,05,27,15,00,24.70
2017,05,27,15,01,24.70
2017,05,27,15,02,24.70
2017,05,27,15,03,24.60
2017,05,27,15,04,24.60
2017,05,27,15,05,24.50
2017,05,27,15,06,24.40
2017,05,27,15,07,24.30
2017,05,27,15,08,24.40
2017,05,27,15,09,24.40
2017,05,27,15,10,24.50
2017,05,27,15,11,24.60
2017,05,27,15,12,24.60
2017,05,27,15,13,24.70
2017,05,27,15,14,24.90
2017,05,27,15,15,24.90
2017,05,27,15,16,24.90
2017,05,27,15,17,24.90
2017,05,27,15,18,24.90
2017,05,27,15,19,24.90
2017,05,27,15,20,24.80
2017,05,27,15,21,24.70
2017,05,27,15,22,24.60
2017,05,27,15,23,24.70
2017,05,27,15,24,24.60
2017,05,27,15,25,24.60
2017,05,27,15,26,24.70
2017,05,27,15,27,24.70
2017,05,27,15,28,24.60
2017,05,27,15,29,24.60
2017,05,27,15,30,24.60
2017,05,27,15,31,24.60
2017,05,27,15,32,24.60
2017,05,27,15,33,24.60
2017,05,27,15,34,24.70
2017,05,27,15,35,24.70
2017,05,27,15,36,24.80
2017,05,27,15,37,24.80
2017,05,27,15,38,24.90
2017,05,27,15,39,24.90
2017,05,27,15,40,25.00
2017,05,27,15,41,25.00
2017,05,27,15,42,25.10
2017,05,27,15,43,25.10
2017,05,27,15,44,25.20
2017,05,27,15,45,25.20
2017,05,27,15,46,25.20
2017,05,27,15,47,25.10
2017,05,27,15,48,25.10
2017,05,27,15,49,25.10
2017,05,27,15,50,25.00
2017,05,27,15,51,25.00
2017,05,27,15,52,25.10
2017,05,27,15,53,25.10
2017,05,27,15,54,25.10
2017,05,27,15,55,25.20
2017,05,27,15,56,25.10
2017,05,27,15,57,25.10
2017,05,27,15,58,25.20
2017,05,27,15,59,25.10
2017,05,27,16,00,25.00
2017,05,27,16,01,24.90
2017,05,27,16,02,24.90
2017,05,27,16,03,24.90
2017,05,27,16,04,24.90
2017,05,27,16,05,24.90
2017,05,27,16,06,24.90
2017,05,27,16,07,24.90
2017,05,27,16,08,25.00
2017,05,27,16,09,25.00
2017,05,27,16,10,25.00
2017,05,27,16,11,25.10
2017,05,27,16,12,25.10
2017,05,27,16,13,25.10
2017,05,27,16,14,25.10
2017,05,27,16,15,25.10
2017,05,27,16,16,25.20
2017,05,27,16,17,25.20
2017,05,27,16,18,25.20
2017,05,27,16,19,25.20
2017,05,27,16,20,25.20
2017,05,27,16,21,25.20
2017,05,27,16,22,25.20
2017,05,27,16,23,25.20
2017,05,27,16,24,25.10
2017,05,27,16,25,25.00
2017,05,27,16,26,25.00
2017,05,27,16,27,25.00
2017,05,27,16,28,25.00
2017,05,27,16,29,25.00
2017,05,27,16,30,24.90
2017,05,27,16,31,24.90
2017,05,27,16,32,25.00
2017,05,27,16,33,25.10
2017,05,27,16,34,25.20
2017,05,27,16,35,25.30
2017,05,27,16,36,25.40
2017,05,27,16,37,25.60
2017,05,27,16,38,25.70
2017,05,27,16,39,25.70
2017,05,27,16,40,25.70
2017,05,27,16,41,25.70
2017,05,27,16,42,25.70
2017,05,27,16,43,25.70
2017,05,27,16,44,25.70
2017,05,27,16,45,25.70
2017,05,27,16,46,25.70
2017,05,27,16,47,25.70
2017,05,27,16,48,25.70
2017,05,27,16,49,25.80
2017,05,27,16,50,25.80
2017,05,27,16,51,25.80
2017,05,27,16,52,25.80
2017,05,27,16,53,25.80
2017,05,27,16,54,25.70
2017,05,27,16,55,25.60
2017,05,27,16,56,25.60
2017,05,27,16,57,25.60
2017,05,27,16,58,25.60
2017,05,27,16,59,25.60
2017,05,27,17,00,25.60
2017,05,27,17,01,25.50
2017,05,27,17,02,25.60
2017,05,27,17,03,25.60
2017,05,27,17,04,25.60
2017,05,27,17,05,25.60
2017,05,27,17,06,25.50
2017,05,27,17,07,25.50
2017,05,27,17,08,25.40
2017,05,27,17,09,25.40
2017,05,27,17,10,25.40
2017,05,27,17,11,25.40
2017,05,27,17,12,25.40
2017,05,27,17,13,25.40
2017,05,27,17,14,25.50
2017,05,27,17,15,25.50
2017,05,27,17,16,25.40
2017,05,27,17,17,25.40
2017,05,27,17,18,25.40
2017,05,27,17,19,25.40